Weather History for Russell, KS

Change the Weather History Date:

Friday, February 1, 2013

  Actual Average Record
Temperature  
Mean Temperature 23 °F -  
Max Temperature 34 °F 38 °F 80 °F (1963)
Min Temperature 12 °F 17 °F -20 °F (1951)
Degree Days  
Heating Degree Days 42    
Moisture  
Dew Point 16 °F    
Average Humidity 72    
Maximum Humidity 85    
Minimum Humidity 54    
Precipitation  
Precipitation 0.00 in - - ()
Sea Level Pressure  
Sea Level Pressure 30.25 in    
Wind  
Wind Speed 13 mph (SSW)    
Max Wind Speed 28 mph    
Max Gust Speed 34 mph    
Visibility 10 miles    
Events Snow    
Averages and records for this station are not official NWS values.
T = Trace of Precipitation, MM = Missing Value Source: NWS Daily Summary

Daily Weather History Graph

Daily Weather History Graph

Search for Another Location

Airport:

Trip Planner

Search our weather history database for the weather conditions in past years. The results will help you decide how hot, cold, wet, or windy it might be!

Date:

Astronomy

Feb. 01, 2013 Rise Set
Actual Time 7:41 AM CST 5:57 PM CST
Civil Twilight 7:13 AM CST 6:25 PM CST
Nautical Twilight 6:41 AM CST 6:57 PM CST
Astronomical Twilight 6:09 AM CST 7:28 PM CST
Moon No Moon Rise 10:19 AM CST (2/1)
Length of Visible Light 11h 12m
Length of Day
10h 15m
Waning Gibbous, 70% of the Moon is Illuminated
Feb 1
Waning Gibbous
Feb 3
Last Quarter
Feb 10
New
Feb 17
First Quarter
Feb 25
Full

Hourly Weather History & Observations

Time (CST) Temp. Windchill Dew Point Humidity Pressure Visibility Wind Dir Wind Speed Gust Speed Precip Events Conditions
12:53 AM 16.0 °F 10.4 °F 10.9 °F 81% 30.42 in 10.0 mi South 3.5 mph - N/A   Overcast
1:53 AM 12.9 °F 2.6 °F 8.1 °F 81% 30.42 in 10.0 mi SSE 6.9 mph - N/A   Clear
2:53 AM 12.2 °F 1.7 °F 8.6 °F 85% 30.32 in 10.0 mi South 6.9 mph - N/A   Clear
3:53 AM 12.9 °F -0.9 °F 8.1 °F 81% 30.40 in 10.0 mi SSW 11.5 mph - N/A   Clear
4:53 AM 12.0 °F -2.0 °F 8.1 °F 84% 30.38 in 10.0 mi South 11.5 mph - N/A   Clear
5:53 AM 12.9 °F -2.8 °F 8.1 °F 81% 30.37 in 10.0 mi South 15.0 mph - N/A   Partly Cloudy
6:53 AM 16.0 °F 0.6 °F 10.0 °F 77% 30.38 in 10.0 mi SSW 16.1 mph - N/A   Overcast
7:53 AM 18.0 °F 4.2 °F 12.9 °F 81% 30.36 in 10.0 mi South 13.8 mph 27.6 mph N/A   Overcast
8:53 AM 19.0 °F 3.6 °F 12.9 °F 77% 30.35 in 10.0 mi SSW 18.4 mph - N/A   Overcast
9:53 AM 21.2 °F 5.2 °F 12.2 °F 68% 30.23 in 10.0 mi SSW 21.9 mph - N/A   Clear
10:53 AM 24.1 °F 10.1 °F 16.0 °F 71% 30.32 in 10.0 mi SSW 18.4 mph - N/A   Clear
11:53 AM 25.0 °F 9.5 °F 17.1 °F 72% 30.28 in 10.0 mi SSW 24.2 mph 29.9 mph N/A   Clear
12:53 PM 28.9 °F 14.0 °F 18.0 °F 64% 30.20 in 9.0 mi SSW 27.6 mph 34.5 mph 0.00 in Snow Light Snow
1:53 PM 32.0 °F 19.8 °F 19.9 °F 61% 30.19 in 10.0 mi SSW 20.7 mph - 0.00 in   Clear
2:53 PM 32.0 °F 18.1 °F 19.0 °F 59% 30.16 in 10.0 mi SSW 27.6 mph 31.1 mph N/A   Clear
3:53 PM 34.0 °F 22.1 °F 19.0 °F 54% 30.14 in 10.0 mi SSW 21.9 mph - N/A   Clear
4:53 PM 34.0 °F 24.6 °F 21.0 °F 59% 30.13 in 10.0 mi SSW 13.8 mph - N/A   Clear
5:53 PM 32.0 °F 22.1 °F 21.0 °F 64% 30.12 in 10.0 mi South 13.8 mph - N/A   Clear
6:53 PM 30.9 °F 21.2 °F 21.9 °F 69% 30.13 in 10.0 mi SSW 12.7 mph - N/A   Clear
7:53 PM 32.0 °F 22.5 °F 23.0 °F 69% 30.14 in 10.0 mi South 12.7 mph - N/A   Scattered Clouds
8:53 PM 32.0 °F 24.2 °F 24.1 °F 73% 30.16 in 10.0 mi South 9.2 mph - N/A   Partly Cloudy
9:53 PM 30.0 °F 19.5 °F 23.0 °F 75% 30.16 in 10.0 mi SSW 13.8 mph - N/A   Scattered Clouds
10:53 PM 30.9 °F 20.7 °F 23.0 °F 72% 30.15 in 10.0 mi SSW 13.8 mph - N/A   Overcast
11:53 PM 30.0 °F 21.1 °F 24.1 °F 79% 30.15 in 10.0 mi WSW 10.4 mph - N/A   Clear